Vertical_Velocity
0 0 0 1 1 1 1 1 2 2 2 2 2 1 1 1 0 -0 -0 0 -0 -1 -1 -1 -1 -0 -1 -1 -0 -0 -0 -0 0 0 0 0 0 0 0 1 1 1 1 1 1 0 0 0 0 0 -0 -1 -1 -1 -2 -1 -1 -1 -2 -2 -2 -2 -2 -1 -2 -2 -2 -2 -3
0 0 1 1 1 1 1 1 2 2 2 1 1 1 0 0 -0 -0 -0 0 0 0 -0 -1 -0 0 0 -0 0 0 0 -0 0 0 0 0 0 0 0 1 1 1 1 1 1 1 0 0 0 0 -1 -1 -1 -1 -2 -2 -0 -1 -2 -2 -2 -2 -2 -2 -2 -2 -2 -2 -3
0 1 1 1 0 1 1 1 1 1 1 1 1 1 1 0 0 0 0 0 0 0 0 -0 -0 0 0 0 -0 0 0 0 -0 -0 -0 -0 -0 0 0 1 1 1 1 1 1 1 0 0 0 0 0 -1 -1 -1 -2 -2 -1 -0 -1 -2 -2 -2 -2 -2 -2 -2 -1 -2 -2
1 0 0 0 0 1 1 1 1 1 1 1 1 1 1 1 1 1 1 0 1 1 0 0 0 0 0 0 0 -0 -0 0 0 -0 -1 -1 -1 -0 0 0 1 1 0 1 0 0 0 0 0 0 0 0 0 -1 -1 -1 -1 -1 -1 -2 -2 -2 -2 -2 -2 -1 -0 -1 -1
0 0 0 0 0 1 1 1 1 0 0 1 1 1 1 1 1 1 1 1 0 0 0 1 0 0 -0 0 -0 -0 -1 -0 -0 -1 -1 -1 -1 -1 0 0 0 0 0 0 0 0 0 -0 0 0 0 -0 -0 -0 -1 -0 0 -0 -1 -2 -2 -2 -2 -1 -1 -1 -1 -0 -1
0 0 0 0 1 1 1 0 1 0 0 1 1 1 1 1 2 1 1 1 0 0 0 0 0 0 0 0 -0 -0 -1 -1 -1 -1 -1 -1 -1 -1 -0 -0 -0 -0 -0 -0 -0 -0 0 0 0 -0 -0 0 -1 -2 -1 0 0 0 -1 -2 -2 -2 -2 -2 -1 -0 0 -1 0
-0 0 0 0 1 1 1 0 1 1 1 1 1 1 1 1 1 1 1 1 0 0 0 0 -0 -0 -0 -0 -0 -1 -1 -1 -1 -1 -1 -1 -1 -0 -0 -1 -1 -1 -1 -1 0 0 0 1 1 -0 -1 0 -0 -2 -2 -1 -0 0 0 -2 -2 -1 -0 -2 -2 -0 1 -0 0
0 0 0 1 1 1 1 0 1 1 1 1 1 1 1 1 1 1 0 0 0 -0 -1 -0 -1 -1 -1 -0 -1 -1 -2 -2 -2 -2 -1 -0 -0 -0 -1 -1 -1 -1 -1 -1 -0 0 0 0 1 0 -0 -1 -0 -1 -1 -1 -1 -0 1 0 -2 -2 -1 -1 -2 -1 1 1 0
0 0 1 1 1 1 1 0 1 1 1 0 1 1 1 1 0 0 0 0 -1 -1 -1 -1 -1 -1 -0 -1 -1 -2 -2 -2 -2 -2 -1 -0 0 -0 -1 -1 -1 -2 -2 -1 -0 0 0 1 0 -0 -0 0 0 -1 -1 0 0 -0 -0 1 0 -1 -2 -1 -1 -1 -0 1 1
-0 0 1 1 1 0 0 0 0 0 0 0 0 0 1 1 0 0 -0 -1 -1 -1 -1 -1 -1 -1 -1 -1 -1 -2 -2 -2 -1 -1 -1 -0 0 -0 -0 -1 -1 -1 -1 -1 0 1 1 1 1 0 -1 -1 -0 -1 -1 0 1 0 -1 -0 1 0 -2 -2 -1 -1 -1 0 1
0 0 1 1 1 0 0 0 -0 0 0 0 0 0 0 0 0 0 -0 -1 -1 -1 -2 -2 -1 -1 -2 -2 -1 -1 -1 -1 -1 -0 -0 -0 -0 -0 -0 -0 0 0 -0 -1 0 1 1 1 1 1 -0 -1 -1 -1 -1 -1 0 0 -1 -2 0 0 -1 -2 -1 -0 -0 -0 0
0 0 1 1 1 0 0 -0 -1 0 0 0 0 0 0 0 0 0 -0 -1 -1 -2 -2 -2 -1 -1 -2 -2 -1 -1 -0 0 0 0 0 0 -0 -1 -0 -0 0 0 0 0 0 1 1 1 1 1 0 -1 -1 -1 -1 -1 -0 0 -1 -2 -1 -0 -0 -1 -1 -1 -0 0 0
0 1 1 1 0 0 -0 -1 -0 0 0 0 0 0 0 0 0 0 -0 -1 -2 -2 -2 -2 -1 -1 -1 -1 -1 -0 0 0 1 0 0 0 -0 -0 -0 -0 0 1 1 0 1 1 1 0 1 1 1 -0 -0 -0 -0 -1 -1 -1 -1 -1 -1 -0 0 -1 -1 -1 -1 -1 0
1 1 0 0 0 0 -0 -1 -0 0 0 0 0 0 0 0 0 0 -0 -1 -2 -2 -2 -2 -2 -1 -1 -1 -0 0 0 0 0 0 0 -0 -0 0 0 0 1 1 1 0 0 0 0 -1 -0 1 1 1 0 -0 -1 -0 -1 -1 -1 -0 -0 -0 -0 -0 -1 -1 -1 -1 -1
1 0 0 0 0 -0 -0 -0 -0 0 0 0 0 1 1 0 0 0 -0 -1 -2 -2 -2 -2 -2 -1 -0 0 1 1 0 0 0 0 0 -1 -0 0 0 0 1 1 1 1 0 -0 -1 -1 -1 -1 0 1 1 0 -0 -1 -1 -1 -1 -1 -1 -1 -1 -1 -1 -1 -1 -1 -2
0 0 0 0 -0 -0 -0 -0 0 0 0 0 0 1 1 0 0 -0 -1 -1 -2 -2 -1 -1 -1 -1 -0 0 1 1 1 0 0 0 0 -0 0 0 0 1 1 1 1 1 0 -1 -1 -2 -1 -1 -1 0 0 0 0 -0 -0 -1 -1 -1 -2 -2 -2 -2 -2 -2 -3 -2 -1
0 0 0 0 -0 -1 -1 -0 0 0 0 0 0 0 0 -0 -1 -1 -1 -1 -2 -2 -1 -1 -1 0 0 0 0 1 1 0 0 0 0 0 1 1 1 1 1 1 1 1 0 -0 -1 -2 -2 -1 -1 -0 -0 -0 -0 0 0 -0 -1 -2 -2 -2 -3 -3 -3 -3 -3 -3 -2
0 -0 -0 -0 -0 -1 -1 -1 -0 0 0 0 0 -0 -0 -1 -1 -1 -1 -1 -1 -1 -1 -1 -1 0 0 0 0 0 1 0 -0 -0 0 0 1 1 1 1 0 0 0 0 0 0 0 -1 -1 -1 -1 -0 -0 -0 0 0 -1 -1 -1 -2 -3 -3 -3 -3 -4 -3 -3 -2 -2
-0 -0 -0 -0 -1 -1 -0 -0 -0 -0 0 0 -0 -0 -1 -1 -1 -1 -1 -1 -1 0 0 -1 -1 -0 0 0 -0 -0 0 1 0 -0 0 0 0 1 1 1 0 -0 -0 -0 -1 -0 0 -0 -0 -0 0 -0 -0 -0 0 0 -1 -1 -2 -2 -3 -3 -3 -3 -3 -3 -2 -2 -1
-0 -0 -1 -1 -1 -1 -0 -0 0 0 0 -0 -0 -1 -1 -1 -1 -1 -1 -1 -1 0 0 0 -0 -0 -0 -0 -0 -1 -1 0 0 0 -0 -0 -0 -0 -0 0 -0 -1 -1 -1 -1 -1 -1 -1 -1 -1 0 0 0 -0 -0 -0 -1 -1 -2 -2 -2 -2 -2 -2 -2 -2 -2 -2 -1
-1 -1 -1 -1 -1 -1 -1 -0 0 0 0 0 -0 -1 -1 -1 -1 -1 -0 -0 0 0 0 0 0 -0 -0 -0 -0 -1 -1 -1 0 0 -1 -1 -1 -1 -1 -0 -0 -0 -0 -1 -1 -1 -1 -1 -1 -1 -1 -1 0 0 -0 -1 -1 -1 -1 -1 -1 -1 -1 -1 -1 -1 -1 -2 -2
-1 -1 -1 -1 -1 -1 -1 -0 0 0 0 -0 -0 -0 -0 -0 -0 -0 0 0 1 1 1 0 0 0 0 0 0 -0 -1 -1 -1 -1 -1 -1 -2 -2 -1 -1 -0 -1 -1 -1 -1 -2 -2 -2 -1 -1 -1 -1 -1 -1 -0 -1 -1 -1 -1 -1 0 0 -0 -1 -0 -0 -1 -1 -1
-1 -1 -1 -1 -1 -1 -0 0 0 0 0 -0 -0 -0 0 0 0 0 0 1 1 1 0 0 0 0 0 1 1 1 0 -0 -1 -2 -2 -2 -2 -2 -2 -1 -1 -1 -1 -1 -1 -1 -1 -1 -1 -1 -0 -1 -1 -1 -1 -0 -0 -0 0 0 0 1 1 1 1 0 -1 -1 -1
-1 -1 -1 -1 -0 -0 0 0 0 0 -0 -1 -0 0 0 0 0 1 1 0 0 0 0 0 0 0 0 0 1 1 1 0 -0 -1 -2 -2 -2 -2 -2 -2 -2 -2 -2 -2 -2 -2 -2 -2 -2 -2 -2 -1 -1 -0 -0 0 0 -0 -0 0 0 0 0 1 1 1 1 -1 -2
-1 -1 -1 -0 0 0 0 0 0 -0 -1 -1 0 0 1 1 1 1 1 0 0 0 0 0 0 0 0 0 -0 -0 0 0 0 -0 -1 -2 -2 -2 -2 -3 -2 -2 -2 -1 -2 -2 -2 -2 -2 -3 -3 -2 -1 -0 0 1 1 0 -1 -1 -1 0 0 -0 0 1 2 1 0
-1 -1 -0 0 0 0 0 0 0 -0 -0 0 0 0 1 1 1 1 1 0 -0 0 0 0 0 -0 -0 -0 -1 -1 -2 -1 -1 0 0 -0 -1 -2 -2 -2 -2 -2 -2 -1 -1 -2 -2 -3 -3 -4 -4 -3 -2 -0 0 0 0 0 -1 -2 -2 -1 0 0 0 0 1 1 1
0 0 0 0 1 1 0 0 0 0 0 0 1 1 0 0 0 0 0 -0 -1 -0 0 0 0 0 -0 -1 -1 -2 -3 -3 -2 -1 -1 0 -0 -1 -2 -2 -2 -1 -1 -1 -1 -1 -2 -2 -3 -3 -3 -3 -2 0 1 0 -1 -1 -0 -1 -2 -2 -1 0 1 2 1 -0 -1
0 0 0 0 0 0 0 0 1 1 0 1 1 0 0 0 0 0 -0 -0 -0 -0 -0 -1 -1 -1 -1 -2 -2 -2 -2 -3 -2 -2 -1 -1 -1 -1 -1 -2 -1 -1 -1 -0 -1 -1 -2 -2 -2 -2 -2 -2 -1 0 1 1 -0 -1 -1 -1 -1 -1 -1 -1 0 1 2 1 -1
0 0 0 0 0 0 0 1 1 1 1 1 1 1 0 0 0 0 0 -0 0 0 -1 -1 -2 -2 -2 -2 -3 -3 -3 -3 -2 -2 -1 -1 -1 -1 -2 -1 -1 -1 -1 -1 -1 -2 -2 -2 -2 -2 -2 -2 -1 -0 0 1 0 -0 -1 -2 -1 -0 -0 -1 -1 -1 -1 -1 0
1 1 0 0 0 1 1 1 1 1 1 1 1 1 0 0 0 0 0 0 -0 -0 -1 -1 -1 -2 -2 -3 -3 -3 -3 -3 -3 -2 -1 -1 -0 -1 -1 -2 -2 -2 -2 -1 -2 -2 -2 -2 -1 -1 -1 -1 -1 -0 0 0 0 0 -0 -1 -2 -1 -1 0 -0 -1 -2 -2 -2
0 0 0 0 0 0 0 0 1 1 1 1 1 1 0 0 0 0 0 0 -1 -1 -1 -1 -1 -2 -2 -2 -2 -2 -2 -3 -2 -2 -1 -0 0 -0 -1 -1 -2 -2 -2 -1 -1 -1 -1 -1 -1 -1 -1 -1 -1 0 1 1 1 1 0 0 -1 -1 -1 -1 -1 -1 -2 -3 -3
0 0 0 0 0 0 0 0 1 1 1 1 0 0 0 0 0 0 0 -0 -1 -2 -2 -2 -2 -2 -2 -2 -2 -2 -2 -3 -2 -2 -1 -0 -0 -0 -1 -1 -2 -2 -2 -1 -1 -1 -1 -1 -1 -1 -1 -2 -0 0 1 2 2 2 2 0 0 0 -0 -1 -2 -2 -3 -4 -4
-0 -0 0 0 0 0 0 0 0 0 0 0 0 0 0 -0 -0 -0 -1 -1 -1 -1 -1 -2 -2 -2 -2 -2 -2 -2 -2 -2 -2 -2 -1 -0 -0 -1 -1 -2 -2 -2 -2 -1 0 0 -0 -1 -1 -2 -2 -2 -0 1 2 2 3 3 3 1 0 0 0 0 -1 -2 -3 -4 -6
-0 -0 -0 0 0 0 -0 -0 0 0 0 0 -0 -0 0 0 -1 -1 -1 -2 -1 -1 -2 -2 -1 -1 -1 0 0 -0 -1 -1 -1 -1 -1 -1 -0 -0 -1 -2 -2 -2 -1 -1 -1 -0 -1 -1 -2 -2 -2 -1 -0 1 2 3 3 3 3 2 1 -0 -1 -0 -1 -2 -2 -4 -5
1 0 0 -0 -0 -0 -0 -0 0 0 0 -0 -1 -1 -1 -1 -1 -1 -1 -1 -2 -2 -2 -2 -1 -1 -0 -1 0 1 0 -0 0 0 -0 -1 -1 -1 -1 -1 -2 -2 -1 -0 -1 -1 -1 -2 -2 -2 -2 -1 1 2 3 3 3 3 3 2 1 0 -0 -1 -1 -2 -2 -3 -4
1 0 -0 -1 -1 -1 0 0 0 0 0 -0 -1 -1 -1 -1 -1 -1 -1 -1 -1 -2 -2 -2 -2 -1 -1 -1 -1 -1 -0 -0 -0 -0 -1 -0 -1 -1 -0 -0 -1 -2 -2 -1 -1 -1 -1 -2 -2 -2 -1 -0 1 2 3 3 3 3 3 1 0 0 0 0 -1 -2 -2 -2 -3
1 0 0 -0 0 0 0 0 0 0 -0 -1 -1 -1 -1 -2 -1 -1 -1 0 0 -1 -2 -2 -1 -1 -1 -0 -1 -1 -2 -2 -1 -1 -1 -1 -0 -0 0 0 -0 -1 -1 -1 -1 -1 -1 -1 -1 -1 -1 0 0 1 2 2 1 1 1 1 -0 -0 0 2 0 -1 -2 -1 -1
0 1 1 1 1 0 0 0 0 0 -0 -1 -1 -1 -1 -1 -1 -1 -1 0 1 0 -1 -1 -1 -1 -1 0 -0 -1 -2 -2 -2 -2 -2 -2 -1 0 0 0 -1 -1 -1 -1 -1 -1 -0 -1 -1 -1 -1 0 0 0 0 1 -0 -1 -1 -1 -1 -1 -1 2 2 0 -3 -3 0
1 1 1 1 1 1 0 0 0 -0 -0 -1 -1 -1 -1 -1 -1 -1 -1 1 1 1 1 0 -0 -1 -0 0 0 -1 -2 -2 -2 -2 -2 -1 -1 -1 0 0 -1 -1 -1 -1 -1 -0 -0 -0 -1 -1 -1 -1 -1 -1 -1 -1 -2 -2 -2 -2 -1 -2 -2 -2 2 2 0 -4 -2
1 1 1 1 1 1 0 0 -0 -0 -0 -0 -1 -1 -2 -1 -1 -1 -1 0 1 1 1 1 0 0 0 1 1 0 -1 -2 -2 -2 -2 -1 -2 -2 -1 -1 -1 -1 -1 -1 -1 -1 -0 0 -1 -2 -2 -2 -3 -3 -3 -2 -3 -4 -3 -2 -1 -1 -1 -3 -2 1 2 0 -3
1 1 1 1 1 0 0 0 -1 -1 -1 -0 -0 -1 -1 -1 -1 -0 -0 0 0 1 1 1 0 0 0 0 0 0 0 -1 -1 -1 -1 -1 -2 -2 -2 -1 -1 -1 -1 -0 -0 -1 -1 -0 -1 -2 -3 -2 -3 -5 -5 -2 -4 -5 -5 -4 -3 -2 -1 -1 -2 -1 1 3 0
Height
5722 5722 5722 5722 5722 5722 5722 5721 5721 5720 5720 5719 5718 5718 5717 5716 5715 5714 5713 5712 5712 5710 5709 5708 5707 5707 5706 5705 5704 5703 5702 5701 5700 5699 5698 5697 5695 5694 5693 5692 5690 5688 5687 5685 5683 5682 5680 5678 5676 5674 5672 5670 5668 5666 5664 5662 5660 5657 5655 5653 5651 5649 5646 5644 5642 5639 5637 5634 5631
5720 5720 5720 5720 5720 5719 5719 5719 5718 5718 5717 5717 5716 5715 5714 5713 5712 5712 5711 5710 5709 5708 5707 5706 5705 5704 5703 5702 5701 5700 5699 5698 5697 5696 5695 5694 5692 5691 5690 5688 5687 5686 5684 5682 5680 5678 5677 5675 5673 5671 5669 5667 5665 5662 5660 5658 5656 5654 5651 5649 5647 5644 5642 5640 5637 5635 5632 5629 5627
5717 5717 5717 5717 5717 5717 5717 5716 5716 5715 5715 5714 5713 5712 5712 5711 5710 5709 5708 5707 5707 5706 5704 5703 5702 5702 5701 5700 5699 5698 5697 5696 5695 5694 5692 5691 5690 5688 5687 5686 5684 5682 5681 5679 5677 5675 5673 5671 5669 5667 5665 5663 5661 5659 5657 5654 5652 5650 5647 5645 5642 5640 5638 5635 5633 5630 5627 5625 5622
5715 5715 5715 5715 5714 5714 5714 5714 5713 5713 5712 5711 5711 5710 5709 5708 5708 5707 5706 5705 5704 5703 5702 5701 5700 5699 5698 5697 5697 5696 5694 5693 5692 5691 5689 5688 5687 5685 5684 5682 5681 5679 5677 5675 5673 5672 5670 5667 5666 5664 5662 5659 5657 5655 5653 5650 5648 5646 5643 5641 5638 5636 5633 5631 5628 5626 5623 5620 5617
5713 5713 5712 5712 5712 5712 5712 5711 5711 5710 5709 5709 5708 5707 5707 5706 5705 5704 5703 5703 5702 5701 5700 5699 5698 5697 5696 5695 5694 5693 5692 5690 5689 5688 5686 5685 5684 5682 5681 5679 5677 5676 5674 5672 5670 5668 5666 5664 5662 5660 5658 5656 5653 5651 5649 5647 5644 5642 5639 5636 5634 5632 5629 5626 5623 5621 5618 5615 5612
5711 5710 5710 5710 5710 5709 5709 5708 5708 5707 5707 5706 5706 5705 5704 5704 5703 5702 5701 5700 5699 5698 5697 5696 5695 5694 5693 5692 5691 5690 5689 5687 5686 5685 5683 5682 5680 5679 5677 5675 5674 5672 5670 5668 5666 5664 5662 5660 5658 5656 5654 5652 5649 5647 5645 5642 5640 5637 5635 5632 5629 5627 5624 5621 5619 5616 5613 5610 5607
5708 5708 5708 5707 5707 5707 5707 5706 5706 5705 5704 5704 5703 5702 5702 5701 5700 5700 5699 5698 5697 5696 5695 5694 5693 5692 5691 5690 5689 5687 5686 5685 5683 5682 5680 5679 5677 5675 5674 5672 5670 5668 5666 5664 5662 5660 5658 5657 5654 5652 5650 5648 5645 5643 5640 5638 5636 5633 5631 5628 5625 5622 5619 5617 5613 5611 5608 5605 5602
5706 5706 5706 5705 5705 5705 5704 5704 5703 5702 5702 5701 5701 5700 5699 5699 5698 5697 5696 5695 5694 5693 5692 5691 5690 5689 5688 5687 5686 5684 5683 5682 5680 5678 5677 5675 5674 5672 5670 5668 5666 5664 5662 5661 5659 5657 5655 5652 5650 5648 5646 5644 5641 5639 5636 5634 5632 5629 5626 5623 5620 5617 5614 5612 5608 5606 5603 5600 5597
5704 5704 5703 5703 5703 5702 5702 5701 5700 5700 5699 5698 5698 5697 5697 5696 5695 5694 5693 5692 5692 5691 5689 5688 5687 5687 5685 5684 5683 5681 5680 5678 5677 5675 5674 5672 5670 5668 5667 5665 5663 5661 5659 5657 5655 5653 5651 5649 5647 5644 5642 5640 5637 5635 5632 5630 5627 5624 5621 5619 5616 5612 5609 5606 5603 5601 5598 5595 5592
5702 5702 5701 5701 5700 5700 5699 5698 5698 5697 5697 5696 5696 5695 5694 5693 5693 5692 5691 5690 5689 5688 5687 5686 5685 5683 5682 5681 5680 5678 5677 5675 5673 5672 5670 5668 5667 5665 5663 5661 5659 5657 5655 5653 5651 5649 5647 5645 5643 5640 5638 5636 5633 5631 5628 5625 5622 5620 5617 5614 5611 5607 5604 5601 5598 5596 5593 5590 5587
5699 5699 5699 5698 5698 5697 5697 5696 5695 5695 5694 5693 5693 5692 5692 5691 5690 5689 5688 5687 5686 5685 5684 5683 5682 5681 5679 5678 5677 5675 5673 5672 5670 5668 5667 5665 5663 5661 5659 5657 5656 5653 5652 5649 5647 5646 5643 5641 5639 5637 5634 5631 5629 5626 5623 5621 5618 5615 5612 5609 5606 5603 5600 5597 5593 5591 5588 5586 5583
5697 5697 5697 5696 5696 5695 5694 5693 5693 5692 5692 5691 5691 5690 5689 5688 5687 5687 5686 5684 5683 5682 5681 5680 5679 5677 5676 5675 5673 5672 5670 5668 5667 5665 5663 5661 5659 5657 5656 5654 5652 5650 5648 5646 5644 5642 5640 5637 5635 5633 5630 5627 5624 5622 5619 5616 5613 5610 5607 5604 5601 5598 5595 5592 5589 5586 5583 5581 5578
5695 5695 5694 5694 5693 5692 5692 5691 5690 5690 5689 5689 5688 5687 5687 5686 5685 5684 5683 5682 5681 5680 5678 5677 5676 5674 5673 5672 5670 5668 5667 5665 5663 5661 5660 5658 5656 5654 5652 5650 5648 5646 5644 5642 5640 5638 5636 5633 5631 5629 5626 5623 5620 5617 5614 5611 5608 5605 5602 5599 5596 5593 5590 5587 5585 5582 5579 5576 5573
5693 5692 5692 5691 5691 5690 5689 5689 5688 5687 5687 5687 5686 5685 5684 5683 5682 5681 5680 5679 5678 5677 5675 5674 5673 5671 5670 5668 5667 5665 5663 5662 5660 5658 5656 5654 5652 5650 5648 5647 5644 5642 5641 5638 5636 5634 5632 5629 5627 5624 5622 5619 5616 5612 5609 5606 5603 5600 5597 5595 5592 5589 5586 5583 5580 5577 5575 5572 5569
5691 5690 5690 5689 5688 5687 5687 5686 5686 5685 5685 5684 5683 5683 5682 5681 5680 5679 5677 5676 5675 5674 5672 5671 5670 5668 5667 5665 5663 5662 5660 5658 5656 5654 5652 5651 5649 5647 5645 5643 5641 5639 5637 5634 5632 5630 5627 5625 5622 5620 5617 5614 5611 5608 5605 5602 5598 5596 5592 5590 5587 5584 5581 5578 5575 5572 5570 5567 5564
5688 5688 5687 5687 5686 5685 5684 5684 5683 5683 5682 5682 5681 5680 5679 5678 5677 5676 5675 5673 5672 5671 5669 5668 5666 5665 5663 5662 5660 5658 5656 5654 5653 5651 5649 5647 5645 5643 5641 5639 5637 5635 5633 5631 5628 5626 5623 5620 5618 5615 5612 5609 5606 5603 5600 5597 5594 5591 5588 5585 5582 5579 5577 5573 5571 5567 5565 5562 5558
5686 5685 5685 5684 5683 5683 5682 5682 5681 5681 5680 5679 5678 5677 5677 5675 5674 5673 5672 5670 5669 5667 5666 5665 5663 5662 5660 5658 5657 5655 5653 5651 5649 5647 5646 5643 5642 5640 5638 5636 5634 5632 5629 5627 5624 5622 5619 5616 5613 5610 5607 5605 5602 5599 5596 5592 5589 5586 5583 5580 5577 5574 5572 5568 5565 5562 5559 5556 5552
5684 5683 5682 5682 5681 5680 5680 5679 5679 5678 5677 5677 5676 5675 5674 5672 5671 5670 5669 5667 5666 5664 5663 5661 5660 5658 5657 5655 5653 5651 5649 5647 5646 5644 5642 5640 5638 5636 5634 5632 5630 5627 5625 5623 5620 5617 5615 5612 5609 5606 5603 5600 5597 5594 5591 5588 5585 5582 5579 5576 5573 5570 5567 5563 5560 5557 5554 5550 5547
5681 5681 5680 5679 5679 5678 5677 5677 5677 5676 5675 5674 5673 5672 5671 5670 5668 5667 5666 5664 5663 5661 5660 5658 5657 5655 5653 5651 5649 5648 5646 5644 5642 5640 5638 5637 5635 5632 5631 5628 5626 5623 5621 5618 5616 5613 5610 5607 5604 5602 5599 5596 5593 5590 5587 5584 5581 5578 5575 5572 5568 5565 5562 5558 5555 5551 5548 5544 5541
5679 5678 5677 5677 5677 5676 5675 5675 5674 5673 5672 5672 5670 5669 5668 5667 5666 5664 5663 5661 5660 5658 5657 5655 5653 5652 5650 5648 5646 5644 5642 5641 5639 5637 5635 5633 5631 5629 5627 5624 5622 5619 5617 5614 5612 5609 5606 5603 5600 5597 5594 5592 5589 5586 5582 5580 5577 5573 5570 5567 5564 5560 5557 5553 5550 5546 5542 5538 5535
5677 5676 5675 5675 5674 5674 5673 5672 5672 5671 5670 5669 5668 5667 5665 5664 5663 5661 5660 5658 5657 5655 5653 5652 5650 5648 5646 5644 5642 5641 5639 5637 5635 5633 5631 5629 5627 5625 5623 5620 5618 5615 5612 5610 5607 5604 5601 5598 5596 5593 5590 5587 5584 5582 5579 5576 5572 5569 5566 5562 5559 5556 5552 5548 5544 5540 5537 5532 5528
5674 5674 5673 5672 5672 5672 5671 5670 5669 5668 5667 5666 5665 5664 5662 5661 5660 5658 5657 5655 5654 5652 5650 5648 5647 5645 5643 5641 5639 5637 5635 5633 5632 5630 5627 5625 5623 5621 5618 5616 5614 5611 5608 5605 5602 5600 5597 5594 5591 5589 5586 5583 5580 5577 5574 5572 5568 5565 5562 5558 5554 5551 5547 5543 5539 5535 5531 5527 5522
5672 5672 5671 5670 5670 5669 5668 5667 5667 5666 5665 5663 5662 5661 5660 5658 5657 5655 5654 5652 5651 5649 5647 5645 5643 5642 5640 5638 5636 5634 5632 5630 5628 5626 5624 5622 5619 5617 5614 5612 5609 5607 5604 5601 5598 5595 5593 5590 5587 5584 5582 5579 5576 5573 5570 5567 5564 5560 5557 5553 5550 5546 5542 5538 5534 5529 5525 5520 5516
5670 5669 5669 5668 5667 5667 5666 5665 5664 5663 5662 5661 5659 5658 5657 5656 5654 5652 5651 5649 5647 5646 5644 5642 5640 5638 5636 5634 5633 5631 5629 5627 5624 5622 5620 5617 5615 5613 5610 5607 5605 5602 5599 5597 5594 5591 5588 5586 5583 5580 5577 5575 5572 5569 5566 5562 5559 5555 5552 5548 5545 5541 5537 5533 5528 5524 5519 5515 5510
5668 5667 5667 5666 5665 5664 5663 5662 5662 5660 5659 5658 5657 5655 5654 5652 5651 5649 5647 5646 5644 5642 5640 5638 5637 5635 5633 5631 5629 5627 5625 5623 5621 5619 5616 5613 5611 5608 5606 5603 5601 5598 5595 5592 5589 5587 5584 5581 5578 5576 5573 5570 5567 5565 5561 5557 5554 5550 5547 5542 5539 5535 5532 5527 5523 5518 5514 5509 5504
5666 5665 5664 5664 5663 5662 5661 5660 5659 5658 5656 5655 5654 5652 5651 5649 5648 5646 5644 5642 5641 5639 5637 5635 5633 5632 5630 5628 5626 5624 5622 5620 5617 5615 5612 5610 5607 5604 5602 5599 5596 5594 5591 5588 5585 5582 5579 5577 5574 5571 5568 5566 5563 5560 5557 5552 5549 5545 5541 5537 5533 5529 5526 5522 5517 5513 5508 5503 5498
5663 5663 5662 5661 5661 5660 5659 5657 5657 5655 5654 5652 5651 5650 5648 5646 5645 5643 5641 5639 5637 5636 5634 5632 5630 5628 5626 5624 5622 5620 5618 5616 5613 5611 5608 5606 5603 5600 5597 5595 5592 5589 5587 5584 5581 5578 5575 5572 5569 5567 5563 5561 5558 5555 5552 5548 5544 5540 5536 5532 5527 5523 5520 5516 5512 5507 5502 5497 5492
5661 5661 5660 5659 5658 5657 5656 5655 5654 5652 5651 5650 5648 5647 5645 5643 5641 5639 5638 5636 5634 5632 5631 5629 5627 5625 5623 5621 5618 5616 5614 5612 5609 5607 5604 5602 5599 5596 5593 5591 5588 5585 5582 5580 5577 5574 5571 5568 5565 5562 5559 5556 5553 5550 5546 5542 5538 5534 5530 5526 5522 5518 5513 5509 5505 5500 5496 5491 5486
5659 5658 5657 5657 5656 5655 5653 5652 5651 5650 5648 5647 5645 5643 5642 5640 5638 5636 5635 5633 5631 5629 5627 5625 5623 5621 5619 5617 5615 5612 5610 5607 5605 5603 5600 5597 5595 5592 5589 5587 5584 5581 5578 5576 5573 5570 5567 5564 5561 5557 5554 5551 5548 5545 5541 5537 5533 5529 5525 5520 5516 5512 5507 5503 5498 5494 5489 5484 5480
5657 5656 5655 5654 5653 5652 5651 5649 5648 5647 5645 5643 5642 5640 5638 5637 5635 5633 5632 5630 5628 5626 5624 5622 5620 5617 5615 5613 5611 5608 5606 5603 5601 5599 5596 5594 5591 5588 5585 5582 5580 5577 5574 5572 5569 5566 5563 5560 5556 5553 5550 5546 5543 5540 5536 5532 5528 5523 5519 5514 5510 5505 5501 5497 5492 5487 5482 5477 5472
5654 5653 5652 5651 5650 5649 5648 5647 5645 5643 5642 5640 5639 5637 5635 5634 5632 5630 5628 5627 5625 5622 5620 5618 5616 5614 5612 5609 5607 5605 5602 5599 5597 5595 5592 5590 5587 5584 5581 5578 5576 5573 5570 5567 5565 5562 5558 5555 5552 5548 5545 5542 5538 5534 5531 5527 5522 5518 5513 5508 5504 5499 5495 5490 5485 5480 5475 5470 5465
5652 5651 5650 5649 5647 5646 5645 5643 5642 5640 5639 5637 5636 5634 5632 5631 5629 5627 5625 5623 5621 5619 5617 5615 5613 5610 5608 5606 5603 5601 5598 5596 5593 5591 5588 5586 5583 5580 5577 5574 5572 5569 5566 5563 5560 5557 5554 5551 5547 5544 5540 5537 5533 5529 5526 5521 5517 5512 5507 5502 5498 5493 5488 5483 5478 5473 5468 5463 5457
5649 5648 5647 5646 5645 5643 5642 5640 5639 5637 5636 5634 5632 5631 5629 5627 5626 5624 5622 5620 5618 5616 5613 5611 5609 5607 5604 5602 5599 5597 5594 5592 5589 5587 5584 5581 5579 5576 5573 5570 5567 5565 5562 5559 5556 5553 5549 5546 5542 5539 5535 5532 5528 5524 5520 5516 5512 5507 5502 5497 5492 5487 5482 5477 5472 5467 5461 5455 5450
5646 5645 5644 5643 5642 5640 5639 5637 5636 5634 5632 5631 5629 5628 5626 5624 5622 5620 5618 5616 5614 5612 5610 5608 5606 5603 5601 5598 5596 5593 5590 5587 5585 5582 5580 5577 5575 5572 5569 5567 5563 5561 5558 5555 5552 5548 5545 5541 5537 5534 5530 5527 5523 5519 5515 5511 5506 5501 5497 5492 5487 5482 5476 5471 5466 5460 5454 5448 5443
5644 5642 5641 5640 5638 5637 5636 5634 5632 5631 5630 5628 5627 5625 5623 5621 5619 5617 5615 5613 5611 5608 5606 5604 5602 5599 5597 5594 5592 5589 5587 5584 5581 5579 5576 5574 5571 5568 5566 5562 5559 5556 5553 5550 5547 5543 5540 5536 5532 5529 5525 5521 5517 5514 5510 5505 5501 5496 5491 5486 5481 5476 5471 5465 5459 5453 5447 5441 5436
5641 5640 5638 5637 5636 5634 5633 5631 5630 5628 5627 5625 5623 5622 5620 5618 5616 5614 5612 5610 5607 5605 5603 5600 5598 5596 5593 5590 5587 5585 5583 5580 5578 5575 5572 5570 5567 5565 5562 5558 5555 5552 5549 5545 5542 5538 5535 5531 5527 5523 5520 5516 5512 5508 5504 5500 5495 5491 5486 5481 5476 5470 5465 5460 5453 5447 5441 5434 5428
5638 5637 5635 5634 5633 5631 5630 5628 5627 5625 5624 5622 5620 5618 5617 5615 5613 5611 5608 5607 5604 5602 5599 5597 5594 5592 5589 5587 5584 5581 5578 5576 5574 5572 5569 5566 5563 5561 5558 5554 5551 5548 5544 5541 5537 5533 5530 5526 5522 5518 5514 5510 5506 5502 5498 5494 5489 5485 5480 5475 5470 5464 5459 5453 5448 5442 5435 5428 5422
5635 5634 5632 5631 5630 5628 5627 5626 5624 5622 5621 5619 5617 5615 5613 5612 5609 5607 5605 5603 5601 5598 5595 5593 5590 5588 5586 5583 5580 5577 5575 5572 5570 5567 5565 5562 5559 5557 5554 5550 5547 5543 5540 5536 5532 5528 5524 5520 5516 5512 5508 5504 5500 5496 5492 5488 5483 5479 5474 5469 5464 5459 5453 5447 5442 5436 5429 5422 5416
5632 5631 5630 5628 5627 5626 5624 5622 5621 5619 5617 5616 5614 5612 5610 5608 5606 5604 5602 5599 5597 5595 5592 5589 5587 5584 5582 5579 5577 5574 5571 5568 5566 5563 5561 5558 5555 5552 5549 5546 5542 5538 5535 5531 5527 5523 5519 5515 5511 5506 5502 5498 5494 5490 5486 5482 5477 5472 5468 5463 5458 5453 5447 5441 5435 5429 5424 5417 5411
5630 5628 5627 5626 5624 5623 5621 5620 5618 5616 5614 5613 5611 5609 5607 5605 5602 5600 5598 5596 5593 5591 5588 5586 5583 5581 5578 5576 5573 5571 5568 5565 5562 5559 5557 5553 5550 5547 5544 5541 5537 5534 5530 5526 5522 5518 5513 5509 5505 5500 5496 5492 5487 5483 5479 5475 5471 5466 5461 5456 5452 5447 5442 5435 5428 5422 5417 5412 5406
5627 5626 5624 5623 5621 5620 5618 5617 5615 5613 5611 5609 5607 5606 5603 5601 5599 5597 5594 5592 5590 5587 5585 5582 5580 5577 5575 5572 5570 5567 5565 5562 5558 5555 5552 5549 5546 5543 5540 5536 5532 5528 5524 5521 5517 5512 5508 5503 5499 5495 5490 5485 5481 5477 5472 5468 5464 5460 5455 5449 5445 5440 5435 5429 5423 5416 5410 5405 5400